Terminal Aerodrome Forecast
Issued by NWS Pittsburgh, PA

Current Version | Previous Version | Graphics & Text | Print | Product List | Glossary On
Versions: 1 2 3 4 5 6 7 8 9 10 11 12 13 14 15 16 17 18 19 20 21 22 23 24 25 26 27
000
FTUS41 KPBZ 221600 AAC
TAFPIT
TAF AMD
KPIT 221606Z 2216/2318 28008G16KT P6SM BKN012
      TEMPO 2216/2219 3SM -SHRA
     FM221900 30012G20KT P6SM BKN025
     FM230200 33007KT P6SM BKN025
     FM231500 34010G18KT P6SM BKN040=

USA.gov is the U.S. government's official web portal to all federal, state and local government web resources and services.